QPF
0.04 0.04 0.04 0.04 0.05 0.06 0.06 0.05 0.05 0.04 0.02 0.02 0.02 0.02 0.03 0.02 0.03 0.04 0.03 0.04 0.05 0.04 0.03 0.02 0.02 0.02 0.01 0.01 0.00 0.00 0.00 0.00 0.00 0.00 0.00 0.01 0.02 0.03
0.04 0.04 0.04 0.05 0.04 0.04 0.04 0.04 0.05 0.04 0.02 0.02 0.04 0.05 0.05 0.04 0.03 0.04 0.04 0.04 0.04 0.04 0.03 0.03 0.02 0.02 0.01 0.00 0.00 0.00 0.00 0.00 0.00 0.00 0.00 0.00 0.01 0.01
0.06 0.07 0.05 0.04 0.03 0.03 0.03 0.03 0.04 0.05 0.03 0.01 0.01 0.03 0.03 0.02 0.03 0.04 0.05 0.05 0.04 0.04 0.03 0.02 0.02 0.02 0.01 0.01 0.00 0.00 0.00 0.00 0.00 0.00 0.00 0.00 0.00 0.01
0.05 0.06 0.05 0.03 0.03 0.04 0.04 0.04 0.03 0.04 0.04 0.02 0.02 0.02 0.02 0.02 0.03 0.04 0.04 0.03 0.02 0.02 0.02 0.02 0.01 0.01 0.01 0.01 0.00 0.00 0.00 0.00 0.00 0.01 0.01 0.01 0.01 0.01
0.03 0.03 0.04 0.04 0.03 0.04 0.04 0.04 0.04 0.04 0.04 0.03 0.02 0.03 0.04 0.03 0.05 0.04 0.04 0.02 0.02 0.02 0.02 0.01 0.01 0.02 0.01 0.01 0.01 0.01 0.01 0.01 0.01 0.01 0.01 0.01 0.01 0.01
0.02 0.02 0.03 0.04 0.04 0.04 0.04 0.04 0.04 0.04 0.05 0.05 0.03 0.03 0.04 0.04 0.05 0.05 0.05 0.03 0.02 0.02 0.03 0.02 0.02 0.02 0.02 0.01 0.01 0.02 0.02 0.02 0.02 0.01 0.01 0.01 0.02 0.01
0.01 0.01 0.02 0.02 0.03 0.04 0.04 0.03 0.04 0.04 0.04 0.04 0.04 0.05 0.05 0.04 0.04 0.04 0.06 0.05 0.03 0.03 0.04 0.03 0.03 0.03 0.02 0.02 0.01 0.02 0.03 0.02 0.02 0.02 0.02 0.01 0.01 0.02
0.01 0.01 0.01 0.02 0.02 0.03 0.03 0.03 0.04 0.04 0.04 0.04 0.04 0.04 0.04 0.04 0.04 0.05 0.05 0.05 0.03 0.02 0.04 0.03 0.03 0.03 0.03 0.03 0.03 0.04 0.04 0.03 0.03 0.03 0.03 0.03 0.02 0.02
0.01 0.01 0.01 0.02 0.02 0.02 0.02 0.02 0.02 0.03 0.04 0.05 0.04 0.03 0.03 0.03 0.05 0.05 0.04 0.04 0.03 0.03 0.03 0.02 0.03 0.04 0.04 0.03 0.03 0.04 0.04 0.03 0.03 0.04 0.04 0.04 0.04 0.03
0.01 0.01 0.01 0.02 0.03 0.04 0.04 0.02 0.02 0.02 0.03 0.04 0.04 0.04 0.05 0.05 0.06 0.06 0.05 0.04 0.03 0.03 0.04 0.03 0.03 0.03 0.04 0.04 0.03 0.04 0.05 0.03 0.03 0.04 0.04 0.04 0.04 0.04
0.01 0.02 0.02 0.02 0.03 0.05 0.04 0.04 0.02 0.02 0.04 0.04 0.04 0.04 0.06 0.07 0.08 0.07 0.05 0.04 0.03 0.02 0.03 0.04 0.03 0.04 0.04 0.05 0.04 0.05 0.07 0.07 0.06 0.06 0.05 0.05 0.05 0.04
0.01 0.02 0.02 0.03 0.03 0.04 0.03 0.03 0.02 0.02 0.02 0.03 0.04 0.04 0.04 0.06 0.07 0.06 0.05 0.04 0.03 0.02 0.02 0.04 0.04 0.04 0.03 0.03 0.04 0.06 0.09 0.10 0.10 0.09 0.09 0.08 0.08 0.06
0.01 0.01 0.01 0.01 0.01 0.01 0.02 0.02 0.01 0.01 0.01 0.01 0.01 0.03 0.04 0.04 0.04 0.06 0.07 0.07 0.05 0.03 0.02 0.04 0.04 0.05 0.05 0.04 0.04 0.04 0.06 0.09 0.09 0.09 0.09 0.09 0.09 0.08
0.01 0.01 0.00 0.01 0.01 0.01 0.01 0.01 0.01 0.01 0.01 0.01 0.01 0.02 0.02 0.02 0.03 0.04 0.05 0.07 0.07 0.05 0.04 0.06 0.05 0.04 0.06 0.05 0.04 0.04 0.04 0.05 0.07 0.07 0.08 0.09 0.11 0.12
0.01 0.01 0.01 0.01 0.01 0.01 0.01 0.01 0.01 0.01 0.02 0.02 0.02 0.02 0.02 0.02 0.02 0.02 0.03 0.04 0.06 0.08 0.07 0.07 0.07 0.06 0.06 0.06 0.04 0.03 0.04 0.04 0.04 0.05 0.06 0.07 0.06 0.08
0.02 0.02 0.01 0.01 0.00 0.00 0.01 0.01 0.02 0.03 0.03 0.03 0.03 0.03 0.02 0.03 0.03 0.03 0.03 0.03 0.04 0.06 0.07 0.07 0.07 0.08 0.08 0.08 0.07 0.06 0.05 0.05 0.04 0.05 0.05 0.05 0.05 0.05
0.04 0.03 0.02 0.01 0.01 0.00 0.01 0.02 0.04 0.06 0.07 0.08 0.06 0.04 0.03 0.03 0.03 0.03 0.03 0.03 0.04 0.04 0.05 0.06 0.07 0.08 0.09 0.09 0.08 0.07 0.05 0.04 0.03 0.03 0.03 0.03 0.03 0.03
0.04 0.03 0.02 0.01 0.01 0.01 0.01 0.01 0.02 0.04 0.03 0.05 0.05 0.03 0.03 0.02 0.02 0.02 0.02 0.03 0.03 0.04 0.05 0.06 0.07 0.08 0.07 0.07 0.07 0.06 0.04 0.02 0.02 0.03 0.04 0.04 0.04 0.05
0.02 0.02 0.02 0.02 0.01 0.01 0.01 0.01 0.01 0.02 0.02 0.02 0.02 0.02 0.02 0.02 0.01 0.01 0.02 0.02 0.02 0.03 0.04 0.06 0.06 0.07 0.07 0.05 0.05 0.05 0.05 0.04 0.04 0.05 0.06 0.06 0.06 0.05
0.01 0.01 0.01 0.01 0.01 0.01 0.01 0.01 0.01 0.01 0.02 0.03 0.03 0.04 0.03 0.02 0.02 0.02 0.02 0.02 0.02 0.02 0.04 0.06 0.08 0.08 0.07 0.07 0.06 0.06 0.06 0.06 0.06 0.07 0.08 0.09 0.09 0.09
0.01 0.01 0.01 0.01 0.01 0.01 0.01 0.01 0.01 0.01 0.02 0.03 0.03 0.03 0.04 0.04 0.03 0.02 0.02 0.02 0.02 0.03 0.04 0.05 0.07 0.09 0.10 0.10 0.10 0.09 0.10 0.11 0.09 0.07 0.08 0.09 0.10 0.09
0.01 0.01 0.01 0.01 0.01 0.01 0.01 0.02 0.02 0.02 0.02 0.02 0.03 0.04 0.06 0.06 0.04 0.03 0.03 0.03 0.03 0.03 0.04 0.04 0.05 0.09 0.13 0.14 0.13 0.12 0.13 0.16 0.17 0.16 0.12 0.10 0.09 0.08
0.01 0.01 0.01 0.01 0.01 0.01 0.01 0.01 0.02 0.02 0.02 0.02 0.02 0.03 0.05 0.06 0.05 0.04 0.04 0.04 0.03 0.03 0.05 0.05 0.05 0.08 0.13 0.16 0.17 0.16 0.13 0.13 0.14 0.16 0.16 0.14 0.10 0.08
MSLP
1008.11 1008.40 1008.66 1008.88 1009.04 1009.12 1009.13 1009.06 1008.93 1008.76 1008.56 1008.35 1008.15 1007.96 1007.81 1007.70 1007.63 1007.62 1007.67 1007.78 1007.97 1008.21 1008.51 1008.84 1009.18 1009.51 1009.83 1010.11 1010.36 1010.57 1010.77 1010.97 1011.17 1011.39 1011.62 1011.87 1012.11 1012.35
1007.39 1007.59 1007.78 1007.95 1008.07 1008.15 1008.17 1008.14 1008.07 1007.95 1007.80 1007.63 1007.44 1007.25 1007.06 1006.90 1006.76 1006.67 1006.64 1006.69 1006.82 1007.03 1007.30 1007.64 1008.00 1008.37 1008.72 1009.05 1009.35 1009.62 1009.87 1010.11 1010.35 1010.60 1010.86 1011.13 1011.39 1011.64
1006.88 1006.97 1007.06 1007.15 1007.22 1007.28 1007.31 1007.31 1007.28 1007.22 1007.12 1006.98 1006.82 1006.62 1006.41 1006.20 1006.00 1005.83 1005.73 1005.70 1005.76 1005.92 1006.16 1006.46 1006.82 1007.20 1007.58 1007.94 1008.28 1008.59 1008.88 1009.16 1009.44 1009.73 1010.03 1010.34 1010.63 1010.91
1006.59 1006.56 1006.55 1006.55 1006.57 1006.60 1006.62 1006.64 1006.64 1006.61 1006.55 1006.45 1006.30 1006.10 1005.87 1005.62 1005.37 1005.14 1004.96 1004.86 1004.85 1004.93 1005.12 1005.38 1005.70 1006.05 1006.42 1006.79 1007.13 1007.47 1007.78 1008.10 1008.42 1008.75 1009.09 1009.44 1009.78 1010.11
1006.54 1006.40 1006.29 1006.21 1006.17 1006.15 1006.15 1006.17 1006.18 1006.17 1006.12 1006.04 1005.90 1005.70 1005.45 1005.17 1004.88 1004.60 1004.36 1004.19 1004.11 1004.12 1004.22 1004.41 1004.66 1004.96 1005.28 1005.60 1005.93 1006.25 1006.57 1006.91 1007.25 1007.62 1008.01 1008.41 1008.80 1009.19
1006.69 1006.46 1006.27 1006.12 1006.02 1005.96 1005.93 1005.92 1005.91 1005.89 1005.84 1005.75 1005.61 1005.41 1005.15 1004.85 1004.54 1004.22 1003.94 1003.71 1003.55 1003.48 1003.49 1003.58 1003.74 1003.94 1004.17 1004.42 1004.69 1004.97 1005.28 1005.61 1005.97 1006.36 1006.79 1007.24 1007.69 1008.14
1007.00 1006.70 1006.46 1006.26 1006.11 1006.00 1005.93 1005.88 1005.84 1005.79 1005.71 1005.60 1005.44 1005.22 1004.96 1004.65 1004.32 1003.99 1003.67 1003.40 1003.17 1003.01 1002.93 1002.90 1002.93 1003.01 1003.13 1003.28 1003.46 1003.68 1003.94 1004.26 1004.62 1005.03 1005.49 1005.99 1006.49 1007.00
1007.39 1007.07 1006.80 1006.57 1006.39 1006.24 1006.13 1006.03 1005.93 1005.83 1005.71 1005.56 1005.37 1005.14 1004.87 1004.57 1004.24 1003.89 1003.56 1003.24 1002.95 1002.71 1002.51 1002.36 1002.25 1002.19 1002.18 1002.21 1002.29 1002.44 1002.65 1002.94 1003.30 1003.72 1004.21 1004.73 1005.28 1005.83
1007.83 1007.51 1007.24 1007.00 1006.80 1006.62 1006.46 1006.31 1006.16 1006.01 1005.83 1005.64 1005.42 1005.18 1004.90 1004.59 1004.26 1003.92 1003.56 1003.21 1002.86 1002.53 1002.22 1001.94 1001.70 1001.49 1001.34 1001.25 1001.24 1001.31 1001.47 1001.73 1002.08 1002.51 1003.02 1003.57 1004.15 1004.73
1008.26 1007.97 1007.71 1007.48 1007.27 1007.08 1006.88 1006.69 1006.48 1006.27 1006.05 1005.82 1005.57 1005.31 1005.03 1004.72 1004.40 1004.05 1003.68 1003.28 1002.88 1002.46 1002.04 1001.64 1001.26 1000.91 1000.63 1000.43 1000.32 1000.32 1000.44 1000.68 1001.03 1001.47 1002.00 1002.57 1003.17 1003.77
1008.63 1008.39 1008.16 1007.95 1007.74 1007.53 1007.31 1007.08 1006.84 1006.58 1006.32 1006.06 1005.79 1005.51 1005.23 1004.93 1004.60 1004.25 1003.85 1003.42 1002.95 1002.45 1001.93 1001.40 1000.89 1000.43 1000.03 999.72 999.53 999.48 999.56 999.78 1000.13 1000.60 1001.14 1001.73 1002.35 1002.97
1008.92 1008.71 1008.52 1008.32 1008.12 1007.91 1007.68 1007.43 1007.16 1006.88 1006.59 1006.31 1006.03 1005.75 1005.47 1005.17 1004.84 1004.47 1004.05 1003.58 1003.04 1002.46 1001.84 1001.20 1000.58 999.99 999.49 999.09 998.82 998.71 998.76 998.97 999.32 999.80 1000.36 1000.99 1001.63 1002.28
1009.10 1008.92 1008.74 1008.56 1008.37 1008.16 1007.92 1007.66 1007.38 1007.09 1006.80 1006.52 1006.24 1005.96 1005.68 1005.38 1005.05 1004.66 1004.21 1003.69 1003.10 1002.44 1001.72 1000.98 1000.25 999.56 998.95 998.45 998.11 997.93 997.94 998.12 998.47 998.95 999.54 1000.20 1000.88 1001.57
1009.14 1008.98 1008.81 1008.64 1008.45 1008.23 1008.00 1007.74 1007.46 1007.18 1006.90 1006.63 1006.36 1006.09 1005.82 1005.52 1005.17 1004.77 1004.29 1003.73 1003.07 1002.34 1001.54 1000.71 999.87 999.07 998.36 997.76 997.32 997.05 996.99 997.12 997.43 997.91 998.51 999.21 999.95 1000.71
1009.07 1008.90 1008.73 1008.56 1008.36 1008.15 1007.91 1007.66 1007.40 1007.14 1006.87 1006.61 1006.36 1006.10 1005.83 1005.53 1005.18 1004.75 1004.24 1003.64 1002.93 1002.14 1001.27 1000.35 999.42 998.51 997.68 996.96 996.39 996.02 995.84 995.88 996.13 996.57 997.17 997.90 998.71 999.57
1008.93 1008.75 1008.57 1008.38 1008.18 1007.96 1007.73 1007.49 1007.24 1006.99 1006.74 1006.50 1006.25 1006.00 1005.72 1005.41 1005.04 1004.59 1004.06 1003.42 1002.68 1001.83 1000.90 999.91 998.89 997.88 996.93 996.07 995.36 994.83 994.51 994.42 994.56 994.93 995.51 996.26 997.13 998.10
1008.78 1008.59 1008.40 1008.20 1007.99 1007.77 1007.54 1007.31 1007.07 1006.83 1006.58 1006.34 1006.09 1005.83 1005.53 1005.19 1004.80 1004.32 1003.76 1003.10 1002.33 1001.45 1000.48 999.44 998.34 997.24 996.16 995.16 994.29 993.58 993.09 992.83 992.84 993.10 993.62 994.36 995.30 996.38
1008.74 1008.55 1008.35 1008.15 1007.94 1007.72 1007.49 1007.25 1007.01 1006.77 1006.51 1006.25 1005.97 1005.67 1005.34 1004.96 1004.52 1004.01 1003.41 1002.73 1001.94 1001.05 1000.07 998.99 997.85 996.68 995.50 994.37 993.34 992.46 991.78 991.34 991.18 991.31 991.74 992.46 993.42 994.59
1008.87 1008.70 1008.51 1008.32 1008.12 1007.90 1007.67 1007.43 1007.18 1006.92 1006.64 1006.33 1006.00 1005.64 1005.24 1004.79 1004.29 1003.73 1003.11 1002.40 1001.61 1000.72 999.74 998.67 997.52 996.30 995.06 993.84 992.68 991.65 990.80 990.19 989.87 989.86 990.19 990.85 991.81 993.03
1009.23 1009.09 1008.94 1008.77 1008.58 1008.37 1008.15 1007.91 1007.64 1007.35 1007.02 1006.66 1006.26 1005.81 1005.32 1004.79 1004.21 1003.59 1002.91 1002.19 1001.39 1000.52 999.57 998.54 997.41 996.21 994.96 993.70 992.47 991.34 990.37 989.63 989.17 989.03 989.25 989.83 990.75 991.97
1009.79 1009.70 1009.59 1009.46 1009.30 1009.12 1008.91 1008.66 1008.38 1008.05 1007.68 1007.25 1006.76 1006.21 1005.62 1004.98 1004.31 1003.62 1002.89 1002.14 1001.35 1000.51 999.60 998.63 997.57 996.44 995.24 994.01 992.78 991.63 990.61 989.79 989.24 989.01 989.13 989.63 990.48 991.64
1010.48 1010.45 1010.38 1010.29 1010.17 1010.02 1009.82 1009.59 1009.30 1008.94 1008.52 1008.02 1007.45 1006.81 1006.12 1005.38 1004.61 1003.83 1003.05 1002.27 1001.48 1000.67 999.83 998.94 997.99 996.96 995.87 994.74 993.60 992.50 991.51 990.69 990.11 989.83 989.88 990.30 991.06 992.13
1011.15 1011.17 1011.15 1011.10 1011.01 1010.89 1010.73 1010.51 1010.23 1009.86 1009.42 1008.88 1008.24 1007.53 1006.74 1005.92 1005.06 1004.21 1003.37 1002.55 1001.77 1000.99 1000.22 999.42 998.59 997.70 996.76 995.78 994.78 993.81 992.92 992.18 991.64 991.36 991.38 991.73 992.39 993.34
Thickness
5751 5750 5748 5748 5748 5747 5745 5742 5734 5727 5729 5735 5738 5742 5742 5741 5740 5739 5738 5736 5735 5733 5731 5729 5728 5726 5725 5723 5722 5720 5718 5716 5714 5712 5711 5710 5709 5708
5749 5748 5746 5746 5746 5745 5744 5742 5739 5733 5729 5734 5736 5738 5738 5737 5737 5736 5735 5733 5732 5730 5728 5727 5725 5723 5722 5720 5719 5717 5715 5713 5711 5710 5708 5707 5705 5704
5747 5745 5744 5743 5742 5742 5741 5740 5737 5734 5729 5732 5734 5735 5734 5733 5733 5732 5730 5729 5728 5727 5725 5723 5722 5720 5718 5717 5715 5713 5711 5710 5708 5706 5705 5703 5702 5700
5743 5742 5740 5740 5739 5738 5737 5736 5734 5733 5729 5727 5729 5729 5729 5729 5728 5726 5726 5724 5723 5722 5721 5720 5718 5716 5715 5713 5711 5709 5708 5706 5704 5702 5701 5699 5698 5696
5741 5739 5737 5736 5734 5733 5732 5731 5730 5731 5728 5725 5724 5725 5724 5724 5722 5721 5720 5719 5718 5718 5717 5715 5713 5712 5710 5708 5707 5705 5703 5701 5699 5698 5696 5694 5693 5691
5738 5737 5735 5733 5731 5730 5729 5727 5726 5724 5722 5719 5718 5718 5717 5717 5715 5713 5712 5712 5712 5712 5711 5710 5708 5706 5705 5704 5702 5700 5699 5696 5694 5693 5691 5689 5687 5686
5733 5733 5732 5731 5729 5727 5725 5722 5720 5717 5715 5713 5711 5710 5709 5708 5707 5707 5705 5704 5705 5706 5704 5704 5702 5700 5699 5699 5697 5696 5694 5692 5690 5688 5686 5684 5682 5680
5727 5726 5726 5725 5724 5723 5721 5719 5717 5713 5709 5706 5705 5703 5704 5704 5704 5702 5699 5696 5695 5700 5697 5697 5696 5694 5694 5694 5693 5691 5689 5687 5685 5683 5681 5679 5677 5675
5722 5720 5720 5719 5718 5715 5714 5713 5711 5710 5708 5704 5700 5700 5699 5700 5698 5696 5693 5691 5690 5693 5690 5688 5689 5688 5689 5689 5688 5686 5684 5682 5680 5678 5677 5674 5672 5670
5718 5716 5713 5711 5710 5707 5705 5703 5703 5702 5701 5699 5697 5697 5696 5696 5693 5691 5689 5687 5686 5686 5684 5680 5682 5682 5683 5682 5682 5680 5678 5676 5674 5672 5670 5668 5667 5665
5711 5710 5707 5704 5703 5701 5697 5694 5694 5694 5695 5694 5693 5692 5691 5690 5688 5684 5680 5677 5675 5676 5677 5674 5674 5673 5674 5675 5675 5673 5671 5669 5668 5665 5663 5662 5660 5658
5702 5702 5701 5698 5696 5693 5689 5686 5684 5685 5685 5685 5684 5684 5683 5683 5681 5678 5674 5670 5667 5667 5670 5667 5666 5663 5663 5666 5666 5665 5663 5661 5660 5658 5656 5655 5653 5650
5693 5692 5692 5690 5688 5685 5682 5679 5678 5678 5676 5675 5674 5674 5674 5673 5672 5670 5668 5665 5661 5660 5663 5660 5658 5656 5654 5655 5656 5656 5655 5653 5651 5650 5648 5646 5645 5643
5685 5685 5684 5682 5680 5677 5675 5673 5672 5670 5667 5666 5665 5664 5664 5664 5663 5662 5661 5658 5657 5657 5656 5654 5651 5649 5646 5644 5645 5647 5646 5646 5644 5642 5641 5639 5637 5635
5678 5677 5676 5674 5672 5669 5668 5667 5664 5661 5659 5657 5657 5657 5656 5656 5655 5654 5652 5651 5649 5649 5648 5647 5645 5643 5641 5638 5638 5638 5637 5637 5636 5634 5633 5631 5630 5629
5668 5667 5666 5664 5663 5661 5660 5658 5656 5654 5652 5650 5649 5648 5647 5646 5644 5644 5642 5641 5639 5639 5640 5639 5638 5636 5633 5633 5631 5630 5630 5629 5629 5628 5626 5625 5625 5624
5658 5655 5653 5652 5651 5650 5649 5648 5647 5645 5643 5642 5640 5638 5637 5635 5635 5634 5632 5631 5629 5629 5629 5630 5629 5628 5627 5626 5623 5623 5622 5622 5623 5622 5619 5618 5619 5619
5648 5645 5644 5643 5642 5641 5639 5638 5637 5636 5635 5634 5632 5630 5629 5627 5626 5625 5624 5622 5620 5620 5619 5619 5618 5617 5617 5618 5619 5617 5616 5616 5616 5616 5614 5612 5613 5613
5638 5637 5636 5635 5634 5633 5631 5630 5629 5628 5627 5625 5623 5622 5621 5620 5618 5616 5615 5614 5613 5612 5611 5610 5609 5606 5605 5606 5611 5612 5610 5610 5609 5608 5608 5607 5608 5609
5630 5629 5628 5627 5626 5624 5623 5622 5621 5620 5618 5617 5615 5614 5613 5611 5610 5608 5607 5606 5605 5603 5602 5601 5600 5599 5598 5598 5600 5603 5605 5604 5603 5602 5602 5601 5601 5602
5623 5621 5621 5620 5618 5617 5616 5615 5613 5612 5611 5609 5607 5605 5604 5603 5602 5601 5599 5598 5596 5595 5594 5594 5594 5594 5592 5591 5591 5593 5596 5599 5599 5597 5596 5594 5592 5591
5615 5614 5613 5612 5611 5610 5609 5607 5605 5604 5602 5601 5599 5598 5596 5595 5595 5593 5592 5590 5589 5588 5588 5587 5586 5585 5584 5583 5583 5584 5586 5589 5591 5592 5592 5591 5588 5586
5608 5607 5606 5605 5604 5602 5600 5598 5597 5595 5594 5592 5591 5590 5589 5587 5587 5585 5584 5583 5581 5580 5578 5578 5577 5577 5577 5576 5575 5575 5577 5578 5579 5581 5583 5584 5585 5585